Regional Weather Roundup
Issued by NWS

Home | Current Version | Previous Version | Text Only | Print | Product List | Glossary On
Versions: 1 2 3 4 5 6 7 8 9 10 11 12 13 14 15 16 17 18 19 20 21 22 23 24 25 26 27 28 29 30 31 32 33 34 35 36 37 38 39 40 41 42 43 44 45 46 47 48 49 50
000
ASUS44 KFWD 031415
RWRTX
NORTH TEXAS HOURLY WEATHER ROUNDUP
NATIONAL WEATHER SERVICE FORT WORTH TX
900 AM CDT MON AUG 03 2015

NOTE: "FAIR" INDICATES FEW OR NO CLOUDS BELOW 12,000 FEET WITH NO
SIGNIFICANT WEATHER AND/OR OBSTRUCTIONS TO VISIBILITY.

TXZ118-119-031500-
DALLAS/FORT WORTH METROPLEX

CITY           SKY/WX    TMP DP  RH WIND       PRES   REMARKS
DFW AIRPORT    PTSUNNY   86  61  42 CALM      29.93R
DALLAS LOVE    MOSUNNY   84  64  50 SE5       29.93R
FTW MEACHAM    MOSUNNY   84  60  44 CALM      29.93R
DAL-EXECUTIVE  SUNNY     83  63  50 CALM      29.94R
FTW-ALLIANCE   MOSUNNY   85  62  46 SW3       29.94R
FTW-NAS-JRB    PTSUNNY   84  62  47 CALM      29.94R
FTW-SPINKS     SUNNY     82  64  54 CALM      29.95R
ARLINGTON      MOSUNNY   84  61  45 SE3       29.94R
GRAND PRAIRIE  SUNNY     82  64  54 S3        29.95R
ADDISON        MOSUNNY   84  61  45 CALM      29.95R
MESQUITE       SUNNY     81  64  57 CALM      29.94R
LANCASTER      SUNNY     81  63  54 S3        29.95R
$$

TXZ091>094-102>105-117-120-121-131>134-031500-
NORTH CENTRAL TEXAS

CITY           SKY/WX    TMP DP  RH WIND       PRES   REMARKS
SHRMAN/DENISON MOSUNNY   81  65  57 CALM      29.97R
GAINESVILLE    CLOUDY    80  63  55 CALM      29.98S
BOWIE          PTSUNNY   76  62  62 NE3       29.98S
DECATUR        MOSUNNY   81  61  50 CALM      29.97R
DENTON         CLOUDY    83  62  49 SE5       29.94R
MCKINNEY       SUNNY     82  65  56 E5        29.94R
GREENVILLE     MOSUNNY   82  63  51 S5        29.95R
ROCKWALL       SUNNY     82  65  55 S3        29.94R
TERRELL        SUNNY     81  67  62 S3        29.95R
WAXAHACHIE     MOSUNNY   80  65  61 S3        29.96R
CLEBURNE         N/A     82  64  54 S5        29.96R
GRANBURY       MOSUNNY   82  62  50 E3        29.96R
$$

TXZ083>090-098>101-113>116-127>130-139>142-154-155-031500-
WESTERN NORTH TEXAS

CITY           SKY/WX    TMP DP  RH WIND       PRES   REMARKS
WICHITA FALLS  CLOUDY    75  65  70 MISG      29.96S
WF-KICKAPOO    CLOUDY    79  64  59 N3        29.98S
VERNON         CLOUDY    71  66  82 E10       29.97F
ABILENE        PTSUNNY   81  62  52 S7        29.98R
ABILENE-DYESS  PTSUNNY   82  62  51 NW5       29.97R
BRECKENRIDGE   PTSUNNY   79  61  53 N5        29.97R
GRAHAM         PTSUNNY   80  63  57 N6        29.96S
MINERAL WELLS  MOSUNNY   79  62  56 SE3       29.94R
STEPHENVILLE   SUNNY     76  62  61 CALM      29.99R
COMANCHE       SUNNY     82  64  55 S7        29.97R
BROWNWOOD        N/A     81  61  50 S7        29.97R
COLEMAN        SUNNY     80  63  56 S5        29.98R
BRADY          SUNNY     81  64  57 S9        29.97S
$$

TXZ143>147-156>162-174-175-031500-
CENTRAL TEXAS

CITY           SKY/WX    TMP DP  RH WIND       PRES   REMARKS
WACO           SUNNY     83  66  56 S7        29.94R
WACO-TSTC      SUNNY     82  66  57 S5        29.94R
WACO-MCGREGOR  SUNNY     81  64  57 S7        29.96R
HILLSBORO      SUNNY     83  64  53 S7        29.95R
CORSICANA      SUNNY     83  67  58 SW8       29.95R
MEXIA          SUNNY     82  68  62 NW5       29.94R
HEARNE         SUNNY     80  71  75 CALM      29.94S
CAMERON        SUNNY     82  71  69 CALM      29.93S
TEMPLE         SUNNY     82  63  51 SW6       29.94S
KILLEEN        SUNNY     83  63  50 SW7       29.94R
KILLEEN-SKYLRK SUNNY     84  63  48 SW6       29.92F
FORT HOOD      SUNNY     84  62  47 SW10      29.94R
GATESVILLE     SUNNY     82  64  54 SW7       29.97R
HAMILTON       SUNNY     83  61  47 SW9       29.98R
LAMPASAS       SUNNY     82  64  53 S5        29.95R
$$

TXZ095>097-106>112-122>126-135>138-148>153-164>167-031500-
EAST TEXAS

CITY           SKY/WX    TMP DP  RH WIND       PRES   REMARKS
PARIS          SUNNY     82  63  51 S6        29.95S
SULPHUR SPRNGS SUNNY     84  62  48 S6        29.97R
MOUNT PLEASANT SUNNY     82  63  53 CALM      29.96R
GILMER         SUNNY     81  65  57 CALM      29.95R
MINEOLA        SUNNY     84  68  58 SW6       29.96R
TYLER          MOSUNNY   84  67  56 W6        29.95R
LONGVIEW       SUNNY     84  65  52 W5        29.93S
MARSHALL       SUNNY     83  66  56 CALM      29.96S
ATHENS         MOSUNNY   79  66  65 CALM      29.94R
PALESTINE      SUNNY     81  69  68 CALM      29.95R
JACKSONVILLE   SUNNY     82  67  59 NW6       29.97R
HENDERSON      SUNNY     81  66  61 W5        29.95S
CENTER         FAIR      83  68  59 NW7       29.93R
NACOGDOCHES    SUNNY     81  70  69 N3        29.94R
LUFKIN         SUNNY     79  68  69 CALM      29.94R
$$

SUPPLEMENTAL OBSERVATIONS (CENTRAL)

CITY           SKY/WX    TMP DP  RH WIND       PRES   REMARKS
LAKE TEXOMA      N/A     81  63  54 S2          N/A
CADDO GRASSLND   N/A     84  66  54 S2          N/A
PAT MAYSE LAKE   N/A     79  64  61 CALM        N/A
GREENVILLE       N/A     84  63  48 S5          N/A
CEDAR HILL       N/A     86  63  45 SW3         N/A
ATHENS           N/A     84  68  58 W1          N/A
LAKE LIMESTONE   N/A     82  68  61 W3          N/A
MCGREGOR         N/A     86  63  45 SW5         N/A
TEMPLE           N/A     84  64  51 W5          N/A
$$

SUPPLEMENTAL OBSERVATIONS (WEST)

CITY           SKY/WX    TMP DP  RH WIND       PRES   REMARKS
MILLERS CREEK    N/A     73  66  78 E9G17       N/A
POSSUM KINGDOM   N/A    N/A N/A N/A N6          N/A
LBJ GRASSLAND    N/A     81  63  54 NW3         N/A
GRANBURY         N/A     82  61  47 SE2         N/A
HAMBY            N/A     82  61  47 SW6         N/A
$$

SUPPLEMENTAL OBSERVATIONS (EAST)

CITY           SKY/WX    TMP DP  RH WIND       PRES   REMARKS
CLARKSVILLE      N/A     84  64  51 S5          N/A
TEXARKANA        N/A     84  70  61 SE2         N/A
LINDEN           N/A     84  66  54 SE1         N/A
CADDO LAKE       N/A     86  70  58 S2          N/A  HX  90
GILMER           N/A     84  64  51 W5          N/A
HENDERSON        N/A     82  64  54 W5          N/A
LUFKIN           N/A     82  68  61 MISG        N/A
N SABINE NF      N/A     75  72  88 MISG        N/A
S SABINE NF      N/A     84  70  61 CALM        N/A
$$

SUPPLEMENTAL OBSERVATIONS ARE A COLLECTION OF AUTOMATED INSTRUMENTS
THAT ARE MAINTAINED BY A VARIETY OF FEDERAL AND STATE AGENCIES.
CERTAIN ELEMENTS...SUCH AS HUMIDITY VALUES AND SUSTAINED WIND
SPEEDS...MAY BE APPROXIMATED.



USA.gov is the U.S. government's official web portal to all federal, state and local government web resources and services.